[[{"header":{"parameterUnit":"m.s-1","parameterCategory":2,"la1":30.2992,"la2":30.254,"lo1":-89.0895,"lo2":-89.0443,"dy":0.0025,"dx":0.0025,"nx":19,"ny":19,"refTime":"2026-05-05T21:00:00:Z","depth":"0","parameterNumber":2,"parameterNumberName":"U-component_of_CURRENTS"},"data":[0,0,0,0.2592,0.2594,0.2668,0.2668,0.2793,0.2794,0,0,0,0,0,0,0,0,0,0,0,0.2563,0.2563,0.2592,0.2594,0.2668,0.2668,0.2793,0.2794,0,0,0,0,0,0,0,0,0,0,0,0.2563,0.2563,0.2564,0.2594,0.2668,0.2668,0.2793,0.2729,0,0,0,0,0,0,0,0,0,0,0.2654,0.2628,0.2563,0.2564,0.2595,0.2668,0.2668,0.2726,0.2733,0.2767,0,0.2776,0,0.2791,0.2803,0.2804,0,0,0,0.2595,0.2622,0.2637,0.2564,0.2595,0.2668,0.2635,0.273,0.2738,0.2777,0.2778,0.2783,0.2793,0.2804,0.2805,0.297,0.297,0,0,0.2591,0.2585,0.2631,0.2642,0.2613,0.2633,0.2637,0.2735,0.2747,0.2779,0.2786,0.2795,0.2805,0.2806,0.2969,0.297,0,0,0,0.2578,0.2582,0.2593,0.2636,0.2649,0.2635,0.264,0.2743,0.2745,0.2787,0.2796,0.2806,0.2807,0.2968,0.2969,0.2989,0,0,0,0.2576,0.2574,0.2591,0.259,0.2647,0.2695,0.2646,0.2737,0.2749,0.2796,0.2806,0.2809,0.2967,0.2969,0.2987,0.3018,0,0,0,0.256,0.2573,0.2579,0.2589,0.262,0.2693,0.2701,0.274,0.2755,0.2804,0.2809,0.2966,0.2968,0.2985,0.3014,0.3082,0,0,0,0.2554,0.2575,0.2579,0.2623,0.2619,0.2695,0.2701,0.2763,0.2806,0.2806,0.2967,0.2969,0.2984,0.3011,0.3079,0.3033,0.3044,0,0,0.2576,0.2577,0.2607,0.2613,0.2675,0.2685,0.277,0.282,0.2849,0.2935,0.2939,0.2988,0.3013,0.3082,0.3145,0.3152,0,0,0,0.2614,0.2622,0.2651,0.2685,0.2738,0.2787,0.283,0.2873,0.2954,0.2883,0.3022,0.3039,0.308,0.3047,0.3054,0.3054,0.2978,0.2978,0.2978,0.2611,0.2642,0.2682,0.2722,0.278,0.2862,0.2927,0.2992,0.3001,0.3049,0.3079,0.318,0.3145,0.3149,0.315,0.3095,0.3095,0.3095,0.3095,0.2623,0.2631,0.2684,0.2726,0.2791,0.2865,0.3009,0.3043,0.3179,0.315,0.3189,0.3099,0.3158,0.3156,0.3097,0.3097,0.3097,0.3097,0.3096,0.259,0.2592,0.2621,0.2676,0.2757,0.2866,0.3007,0.3121,0.3208,0.3266,0.3252,0.325,0.323,0.3287,0.3288,0.3288,0.3289,0.3289,0.3289,0.2531,0.2559,0.2565,0.2635,0.2677,0.28,0.3024,0.3136,0.3266,0.3304,0.3303,0.3274,0.324,0.3211,0.3296,0.3295,0.3294,0.3293,0.3293,0.2469,0.2481,0.2498,0.2522,0.2635,0.2717,0.2938,0.3144,0.3282,0.332,0.3343,0.3328,0.3328,0.3321,0.3296,0.3399,0.3399,0.3399,0.3399,0.2409,0.2424,0.2431,0.2471,0.2555,0.2684,0.2795,0.2975,0.3213,0.3298,0.3389,0.3313,0.3308,0.3304,0.3297,0.327,0.3364,0.3365,0.3365,0.2356,0.238,0.2361,0.2422,0.2511,0.2628,0.2662,0.2733,0.309,0.3366,0.3407,0.3408,0.3297,0.329,0.3277,0.3268,0.3221,0,0]},{"header":{"parameterUnit":"m.s-1","parameterCategory":2,"la1":30.2992,"la2":30.254,"lo1":-89.0895,"lo2":-89.0443,"dy":0.0025,"dx":0.0025,"nx":19,"ny":19,"refTime":"2026-05-05T21:00:00:Z","depth":"0","parameterNumber":3,"parameterNumberName":"V-component_of_CURRENTS"},"data":[0,0,0,0.0373,0.0373,0.0392,0.0392,0.0419,0.042,0,0,0,0,0,0,0,0,0,0,0,0.037,0.037,0.0373,0.0373,0.0392,0.0392,0.0419,0.042,0,0,0,0,0,0,0,0,0,0,0,0.037,0.037,0.037,0.0373,0.0392,0.0392,0.0419,0.0406,0,0,0,0,0,0,0,0,0,0,0.0388,0.0382,0.037,0.037,0.0373,0.0392,0.0392,0.0406,0.0407,0.0409,0,0.0409,0,0.0409,0.0421,0.0421,0,0,0,0.0382,0.0381,0.0384,0.037,0.0373,0.0392,0.0386,0.0407,0.0408,0.0411,0.0409,0.041,0.041,0.0421,0.0421,0.0494,0.0495,0,0,0.0381,0.0377,0.0383,0.0385,0.0374,0.0385,0.0386,0.0408,0.0409,0.0409,0.0411,0.041,0.0421,0.0421,0.0493,0.0494,0,0,0,0.0372,0.0376,0.0379,0.0384,0.0384,0.0386,0.0387,0.0408,0.0408,0.0411,0.0411,0.0421,0.0421,0.0493,0.0494,0.0588,0,0,0,0.0372,0.037,0.0378,0.0377,0.0383,0.0395,0.0387,0.0407,0.0409,0.041,0.0421,0.0421,0.0492,0.0493,0.0584,0.0653,0,0,0,0.037,0.037,0.0371,0.0376,0.038,0.0395,0.0397,0.0408,0.0408,0.0421,0.0421,0.0491,0.0493,0.058,0.0646,0.0708,0,0,0,0.0368,0.0396,0.037,0.041,0.038,0.0434,0.0397,0.0434,0.0451,0.0421,0.0492,0.0493,0.0579,0.0641,0.0704,0.0792,0.0821,0,0,0.0409,0.04,0.0428,0.0407,0.0484,0.0432,0.0508,0.0506,0.0475,0.0484,0.0486,0.0585,0.0645,0.0707,0.0885,0.0911,0,0,0,0.0447,0.0469,0.0489,0.0521,0.054,0.0575,0.0555,0.0553,0.0574,0.0489,0.0591,0.0627,0.0663,0.0706,0.0727,0.0715,0.0501,0.0501,0.0501,0.0502,0.0525,0.059,0.0623,0.0656,0.0674,0.0707,0.0697,0.0644,0.0669,0.0708,0.0829,0.0876,0.0893,0.0878,0.0696,0.0696,0.0697,0.0697,0.0593,0.0636,0.0669,0.0738,0.0767,0.082,0.0852,0.0832,0.0881,0.0806,0.0835,0.0809,0.0922,0.0898,0.0703,0.0702,0.0701,0.0701,0.07,0.0635,0.0661,0.0698,0.0801,0.0891,0.0928,0.1069,0.1046,0.0991,0.1031,0.1055,0.1054,0.103,0.1033,0.1034,0.1035,0.1035,0.1036,0.1036,0.066,0.0704,0.078,0.0881,0.0969,0.1099,0.1205,0.1262,0.1259,0.1195,0.1194,0.1089,0.0931,0.0915,0.1045,0.1044,0.1042,0.1041,0.1041,0.0721,0.0731,0.0862,0.0948,0.1174,0.1403,0.1466,0.1591,0.1574,0.1577,0.1364,0.1272,0.1254,0.1237,0.1227,0.1431,0.1431,0.1431,0.1431,0.0749,0.0766,0.0952,0.113,0.1355,0.1556,0.1869,0.1922,0.1747,0.1634,0.1516,0.1449,0.1433,0.142,0.1398,0.1389,0.1629,0.1629,0.1629,0.0794,0.0849,0.0994,0.1179,0.1453,0.176,0.2092,0.2246,0.1917,0.163,0.1487,0.1479,0.1364,0.134,0.1298,0.1268,0.1243,0,0]}],[{"header":{"parameterUnit":"m.s-1","parameterCategory":2,"la1":30.2992,"la2":30.254,"lo1":-89.0895,"lo2":-89.0443,"dy":0.0025,"dx":0.0025,"nx":19,"ny":19,"refTime":"2026-05-05T21:00:00:Z","depth":"2","parameterNumber":2,"parameterNumberName":"U-component_of_CURRENTS"},"data":[0,0,0,0.2493,0.2494,0.2577,0.2578,0.2699,0.2701,0,0,0,0,0,0,0,0,0,0,0,0.2459,0.246,0.2493,0.2495,0.2577,0.2578,0.2699,0.2701,0,0,0,0,0,0,0,0,0,0,0,0.2459,0.246,0.246,0.2495,0.2577,0.2578,0.2699,0.2633,0,0,0,0,0,0,0,0,0,0,0.255,0.2528,0.246,0.246,0.2495,0.2577,0.2578,0.2629,0.2637,0.2666,0,0.2677,0,0.2695,0.2709,0.2709,0,0,0,0.2495,0.2521,0.2534,0.246,0.2496,0.2577,0.254,0.2633,0.2642,0.2676,0.2679,0.2683,0.2697,0.271,0.271,0.287,0.2871,0,0,0.2491,0.2486,0.2528,0.2539,0.2516,0.2538,0.2543,0.2638,0.2653,0.2679,0.2686,0.2699,0.2711,0.2712,0.2869,0.287,0,0,0,0.2477,0.2483,0.2494,0.2534,0.255,0.254,0.2546,0.2649,0.2649,0.2688,0.27,0.2711,0.2713,0.2868,0.287,0.2893,0,0,0,0.2474,0.2475,0.2491,0.2491,0.2548,0.2602,0.2554,0.2642,0.2654,0.27,0.2711,0.2714,0.2867,0.2869,0.2891,0.2921,0,0,0,0.2456,0.2474,0.248,0.2491,0.2526,0.26,0.2607,0.2645,0.2662,0.2709,0.2714,0.2867,0.2869,0.2888,0.2917,0.2986,0,0,0,0.2453,0.2475,0.248,0.2526,0.2525,0.26,0.2606,0.267,0.2713,0.2712,0.2868,0.2869,0.2888,0.2915,0.2982,0.2903,0.2912,0,0,0.2477,0.2478,0.2508,0.2515,0.2575,0.2588,0.2674,0.2725,0.2753,0.2835,0.2839,0.2891,0.2917,0.2985,0.3014,0.3018,0,0,0,0.2514,0.2523,0.2551,0.2586,0.2638,0.2688,0.2734,0.2777,0.286,0.2788,0.2924,0.2941,0.2982,0.2928,0.2933,0.2879,0.2878,0.2878,0.2878,0.2516,0.2545,0.2584,0.2622,0.268,0.2762,0.2828,0.2894,0.2904,0.2954,0.2983,0.3085,0.3027,0.303,0.2999,0.2999,0.2999,0.2999,0.2999,0.2526,0.2535,0.2587,0.2628,0.2693,0.2768,0.2911,0.2947,0.3083,0.3055,0.3093,0.2984,0.3036,0.3002,0.3001,0.3001,0.3,0.3,0.3,0.2497,0.2499,0.2528,0.2581,0.2666,0.2774,0.2913,0.3027,0.3115,0.3172,0.3135,0.3133,0.3103,0.3195,0.3195,0.3195,0.3196,0.3196,0.3196,0.2441,0.2468,0.2473,0.2543,0.2587,0.2712,0.2935,0.3042,0.3158,0.3186,0.3185,0.3152,0.3145,0.3117,0.3203,0.3202,0.3201,0.3201,0.32,0.2382,0.2395,0.2407,0.2432,0.2543,0.2597,0.2824,0.3009,0.3159,0.3183,0.3198,0.3195,0.3191,0.3185,0.3159,0.3252,0.3252,0.3252,0.3252,0.2327,0.2339,0.2346,0.238,0.2455,0.2552,0.2593,0.2693,0.2908,0.2948,0.296,0.2854,0.286,0.283,0.2833,0.2796,0.2795,0.2794,0.2793,0.2276,0.2297,0.2281,0.2331,0.2408,0.2462,0.2369,0.2251,0.2437,0.2767,0.2801,0.3236,0.3111,0.3108,0.3085,0.308,0.3032,0,0]},{"header":{"parameterUnit":"m.s-1","parameterCategory":2,"la1":30.2992,"la2":30.254,"lo1":-89.0895,"lo2":-89.0443,"dy":0.0025,"dx":0.0025,"nx":19,"ny":19,"refTime":"2026-05-05T21:00:00:Z","depth":"2","parameterNumber":3,"parameterNumberName":"V-component_of_CURRENTS"},"data":[0,0,0,0.0312,0.0312,0.0334,0.0335,0.0359,0.0359,0,0,0,0,0,0,0,0,0,0,0,0.0308,0.0308,0.0312,0.0312,0.0334,0.0335,0.0359,0.0359,0,0,0,0,0,0,0,0,0,0,0,0.0308,0.0308,0.0308,0.0312,0.0334,0.0335,0.0359,0.0345,0,0,0,0,0,0,0,0,0,0,0.0325,0.032,0.0308,0.0308,0.0312,0.0334,0.0335,0.0345,0.0346,0.0345,0,0.0346,0,0.0348,0.036,0.036,0,0,0,0.0321,0.0319,0.0321,0.0308,0.0313,0.0334,0.0327,0.0346,0.0347,0.0347,0.0346,0.0347,0.0348,0.036,0.036,0.0426,0.0427,0,0,0.0319,0.0316,0.032,0.0322,0.0315,0.0326,0.0327,0.0347,0.0348,0.0346,0.0348,0.0348,0.036,0.036,0.0426,0.0426,0,0,0,0.031,0.0315,0.0318,0.0321,0.0322,0.0326,0.0328,0.0348,0.0348,0.0348,0.0349,0.036,0.036,0.0425,0.0426,0.0521,0,0,0,0.031,0.0309,0.0317,0.0316,0.0322,0.0336,0.0329,0.0346,0.0348,0.0349,0.036,0.036,0.0424,0.0426,0.0517,0.0587,0,0,0,0.0308,0.0309,0.031,0.0316,0.0321,0.0335,0.0337,0.0347,0.0348,0.036,0.036,0.0424,0.0425,0.0513,0.0579,0.0641,0,0,0,0.0306,0.0334,0.031,0.0349,0.032,0.0373,0.0337,0.0374,0.039,0.036,0.0424,0.0426,0.0512,0.0575,0.0637,0.07,0.0727,0,0,0.0348,0.0339,0.0366,0.0346,0.0421,0.0371,0.0445,0.0443,0.0411,0.0417,0.0419,0.0518,0.0579,0.064,0.0788,0.0812,0,0,0,0.0385,0.0406,0.0426,0.0458,0.0475,0.051,0.0491,0.0489,0.0508,0.0425,0.0523,0.0558,0.0594,0.0622,0.0642,0.0433,0.0433,0.0433,0.0433,0.044,0.0463,0.0526,0.0557,0.059,0.0607,0.0638,0.0628,0.0575,0.0599,0.0638,0.0757,0.0788,0.0803,0.0624,0.0625,0.0625,0.0625,0.0626,0.053,0.0573,0.0605,0.0673,0.07,0.0752,0.0781,0.0762,0.0808,0.0734,0.0763,0.0724,0.0831,0.0633,0.0632,0.0631,0.063,0.0629,0.0629,0.0573,0.0599,0.0635,0.0736,0.0826,0.0862,0.0998,0.0974,0.0919,0.0958,0.0967,0.0965,0.0825,0.0962,0.0962,0.0963,0.0964,0.0964,0.0964,0.06,0.0643,0.0718,0.0817,0.0904,0.1032,0.1135,0.1187,0.1173,0.1103,0.1103,0.0871,0.086,0.0845,0.0974,0.0972,0.0971,0.097,0.0969,0.0662,0.0672,0.0799,0.0884,0.1105,0.1311,0.1375,0.1479,0.1472,0.1464,0.1177,0.1169,0.1149,0.1132,0.1124,0.1317,0.1317,0.1317,0.1317,0.0691,0.0706,0.0891,0.1062,0.128,0.1453,0.1698,0.1678,0.1533,0.1373,0.137,0.1294,0.1279,0.126,0.124,0.123,0.1452,0.1452,0.1452,0.0736,0.0789,0.0933,0.1109,0.1374,0.163,0.184,0.1779,0.15,0.1451,0.1331,0.1339,0.1214,0.1197,0.115,0.1125,0.1102,0,0]}],[{"header":{"parameterUnit":"m.s-1","parameterCategory":2,"la1":30.2992,"la2":30.254,"lo1":-89.0895,"lo2":-89.0443,"dy":0.0025,"dx":0.0025,"nx":19,"ny":19,"refTime":"2026-05-05T21:00:00:Z","depth":"4","parameterNumber":2,"parameterNumberName":"U-component_of_CURRENTS"},"data":[0,0,0,0.1387,0.139,0.1551,0.1552,0.1698,0.1699,0,0,0,0,0,0,0,0,0,0,0,0.1347,0.1348,0.1387,0.139,0.1551,0.1552,0.1698,0.1699,0,0,0,0,0,0,0,0,0,0,0,0.1346,0.1348,0.135,0.1391,0.1551,0.1552,0.1698,0.1593,0,0,0,0,0,0,0,0,0,0,0.1445,0.1414,0.1348,0.135,0.1392,0.1551,0.1552,0.1589,0.16,0.1605,0,0.1643,0,0.1663,0.1707,0.1707,0,0,0,0.1399,0.1405,0.1445,0.135,0.1393,0.1551,0.1481,0.1595,0.1608,0.1619,0.1645,0.1651,0.1666,0.1707,0.1708,0.1856,0.1856,0,0,0.1391,0.1377,0.1437,0.1453,0.1451,0.1476,0.1486,0.1604,0.1623,0.1646,0.1654,0.1668,0.1708,0.1709,0.1855,0.1856,0,0,0,0.1359,0.1371,0.141,0.1446,0.1475,0.148,0.1492,0.1619,0.1632,0.1656,0.167,0.1709,0.171,0.1854,0.1855,0.188,0,0,0,0.1354,0.1352,0.1406,0.1399,0.1473,0.1556,0.1504,0.1624,0.1637,0.1669,0.1709,0.1711,0.1853,0.1855,0.1877,0.1923,0,0,0,0.1337,0.1349,0.1372,0.1398,0.1462,0.1555,0.1575,0.1628,0.1645,0.1707,0.1712,0.1853,0.1854,0.1875,0.1918,0.1958,0,0,0,0.131,0.1339,0.1373,0.1413,0.146,0.1548,0.1575,0.1651,0.1706,0.1709,0.1853,0.1855,0.1874,0.1915,0.1955,0.1695,0,0,0,0.132,0.1341,0.1361,0.1394,0.1457,0.1526,0.162,0.1701,0.1736,0.181,0.1814,0.1878,0.1918,0.1957,0.1806,0,0,0,0,0.1345,0.1365,0.1392,0.1442,0.151,0.1597,0.1687,0.1729,0.1828,0.1776,0.1909,0.1935,0.1957,0.1799,0.1864,0.1864,0.1864,0.1863,0.1863,0.1338,0.1368,0.1408,0.1469,0.1541,0.1659,0.1749,0.1832,0.1856,0.1907,0.1975,0.2057,0.1891,0.1981,0.1981,0.1982,0.1982,0.1982,0.1982,0.1326,0.1335,0.1413,0.147,0.1571,0.1677,0.1821,0.1876,0.204,0.2019,0.2039,0.1862,0.1985,0.1984,0.1984,0.1984,0.1983,0.1983,0.1983,0.129,0.1295,0.1361,0.1448,0.1568,0.1704,0.1832,0.1972,0.2071,0.2148,0.1986,0.2097,0.2071,0.2157,0.2157,0.2157,0.2158,0.2158,0.2158,0.1211,0.1269,0.1309,0.1426,0.1508,0.1642,0.1857,0.1949,0.2075,0.2028,0.2177,0.2117,0.2111,0.2084,0.2164,0.2163,0.2162,0.2162,0.2161,0.1136,0.118,0.1219,0.1289,0.1423,0.1507,0.1728,0.1842,0.1919,0.1924,0.1949,0.1958,0.1933,0.1933,0.1897,0.1926,0.1923,0.192,0,0.1074,0.1097,0.1125,0.1179,0.1236,0.14,0.1446,0.1574,0.1722,0.1672,0.1905,0.1927,0.1933,0.1899,0.1894,0.1847,0,0,0,0.102,0.104,0.1029,0.1083,0.1137,0.1256,0.1441,0.1448,0.1705,0.1704,0.1845,0.1864,0.1992,0.2182,0.2168,0.2161,0.2116,0,0]},{"header":{"parameterUnit":"m.s-1","parameterCategory":2,"la1":30.2992,"la2":30.254,"lo1":-89.0895,"lo2":-89.0443,"dy":0.0025,"dx":0.0025,"nx":19,"ny":19,"refTime":"2026-05-05T21:00:00:Z","depth":"4","parameterNumber":3,"parameterNumberName":"V-component_of_CURRENTS"},"data":[0,0,0,0.0121,0.0121,0.0151,0.0151,0.0164,0.0164,0,0,0,0,0,0,0,0,0,0,0,0.0114,0.0115,0.0121,0.0121,0.0151,0.0151,0.0164,0.0164,0,0,0,0,0,0,0,0,0,0,0,0.0114,0.0114,0.0115,0.0122,0.0151,0.0151,0.0164,0.015,0,0,0,0,0,0,0,0,0,0,0.0125,0.0119,0.0114,0.0115,0.0122,0.0151,0.0151,0.0149,0.015,0.0142,0,0.0145,0,0.015,0.0164,0.0164,0,0,0,0.0128,0.0118,0.0125,0.0115,0.0122,0.0151,0.0139,0.015,0.0152,0.0143,0.0146,0.0146,0.015,0.0164,0.0164,0.0179,0.0179,0,0,0.0127,0.0121,0.0124,0.0125,0.0128,0.0138,0.014,0.0151,0.0152,0.0146,0.0147,0.015,0.0164,0.0164,0.0179,0.0179,0,0,0,0.0117,0.012,0.0127,0.0125,0.0129,0.0139,0.0141,0.0152,0.0154,0.0147,0.015,0.0164,0.0164,0.0178,0.0179,0.0253,0,0,0,0.0117,0.0114,0.0126,0.0123,0.0129,0.0144,0.0141,0.0153,0.0155,0.015,0.0164,0.0163,0.0178,0.0179,0.0251,0.0312,0,0,0,0.0113,0.0114,0.0116,0.0123,0.0132,0.0144,0.0147,0.0154,0.0156,0.0164,0.0163,0.0178,0.0178,0.0249,0.0307,0.0332,0,0,0,0.0108,0.0128,0.0116,0.0143,0.0132,0.017,0.0147,0.0173,0.0184,0.0164,0.0178,0.0179,0.0248,0.0304,0.033,0.0333,0,0,0,0.0135,0.0131,0.0149,0.0139,0.0194,0.0166,0.0217,0.0217,0.0185,0.0173,0.0174,0.0252,0.0307,0.0332,0.036,0,0,0,0,0.0159,0.0176,0.019,0.0215,0.0229,0.0257,0.0249,0.0237,0.0237,0.0191,0.024,0.0273,0.0286,0.0279,0.0181,0.0181,0.0181,0.0181,0.0181,0.0194,0.0211,0.0257,0.0285,0.031,0.032,0.034,0.0319,0.0279,0.0282,0.0324,0.0387,0.038,0.0297,0.0297,0.0298,0.0298,0.0298,0.0298,0.0253,0.0283,0.0314,0.0368,0.039,0.043,0.0432,0.0412,0.0431,0.0376,0.0384,0.0347,0.0305,0.0304,0.0303,0.0302,0.0302,0.0301,0.0301,0.0278,0.0297,0.0334,0.0417,0.0488,0.0513,0.059,0.0566,0.0513,0.054,0.0503,0.044,0.0445,0.053,0.053,0.0531,0.0531,0.0531,0.0531,0.0285,0.0326,0.0388,0.0475,0.055,0.0635,0.0685,0.0696,0.0641,0.0611,0.0564,0.0465,0.0457,0.0457,0.0537,0.0536,0.0536,0.0535,0.0535,0.0315,0.0332,0.0435,0.0509,0.0673,0.0742,0.0789,0.078,0.0784,0.0736,0.063,0.0623,0.0599,0.0589,0.0592,0.0716,0.0716,0.0717,0,0.0324,0.034,0.0484,0.0617,0.0748,0.0812,0.0855,0.0847,0.0764,0.0756,0.0748,0.063,0.0624,0.0594,0.0585,0.059,0,0,0,0.0345,0.0392,0.0496,0.0632,0.0792,0.0839,0.0867,0.0856,0.0782,0.0771,0.0726,0.0724,0.0619,0.0555,0.0503,0.0494,0.0491,0,0]}]]